Cedar Park (Hampton), VA

09:27 PM EDT die 18o August, anno 2018 (GMT -0400)
Paradise In Hampton | | Change Station

Elev 26 ft 37.04 °N, 76.33 °W | Updated 8 seconds ago

Mostly Cloudy
Plerumque Nubila
76.5 °F
Feels Like 76 °F
N
3.1
Ventus Variabilis Ventus from Inter Austrum et Zephyrum
Gusts 6.3 mph

Hodie
High -- | Low -- °F
--% Chance of Precip.
Yesterday
High -- | Low -- °F
Precip. -- in
Pressio 29.89 in
Visibilitas 10.0 milia passuum
Clouds Plerumque Nubila 9500 ft
Index Caloris 76 °F
Frigus in quo Ros apparet 76 °F
Umor 99%
Rainfall in
Snow Depth Not available.
6:24 AM 7:53 PM
First Quarter, 57% visible
METAR KLFI 190056Z 24006KT 10SM BKN095 23/23 A2987 RMK AO2A RAE20 SLP122 P0000 T02340234 $
Pressio 29.89 in
Visibilitas 10.0 milia passuum
Clouds Plerumque Nubila 9500 ft
Index Caloris 76 °F
Frigus in quo Ros apparet 76 °F
Umor 99%
Rainfall in
Snow Depth Not available.
6:24 AM 7:53 PM
First Quarter, 57% visible
METAR KLFI 190056Z 24006KT 10SM BKN095 23/23 A2987 RMK AO2A RAE20 SLP122 P0000 T02340234 $

Get Severe Weather Alerts

Thanks for signing up!

Be on the lookout for a verification email in your inbox.

You'll start receiving the daily forecast at 6 AM.

×

10-Day Weather Forecast

Almanac

Astronomy

Aug. 18, 2018 Rise Set
Actual Time
Civil Twilight
Nautical Twilight
Astronomical Twilight
Moon
Length Of Visible Light
Length of Day
Tomorrow will be .
, % of the Moon is Illuminated

Today's Extremes

State Highs State Lows

Community

WunderPhotos

Category 6

Welcome to Category 6. This is the collective home for Weather Underground's featured writeups by Dr. Jeff Masters (right), Bob Henson (left), Chris Burt, and other regular contributors.

Nearby

Air Quality

  Air Quality AQ Index Pollutant
Not available.

Snow Depth

Station Depth Elevation

Earthquake Activity

City Distance Mag. Time & Date
Minimum magnitude displayed is 2.5.

Coastal Water Temperatures

Locus Calor

Stations

Nearby Weather Stations

Station Location Temp Frigus Venti Frigus in quo Ros apparet Umor Ventus Precip. Elev Renovata Type
                   

Watches & Warnings

There are currently no watches in effect.